パンスターズ彗星

P/2017 U3 ( PanSTARRS )

English version
Home page
Updated on March 3, 2018

---------------------------------------------------------------------

・ プロフィール

発見日 2017年10月28日
発見光度 21.7等
発見者 Pan-STARRS 1 telescope (Haleakala)

・ 写真集

・ 軌道要素

Epoch 2019 Apr. 27.0 TT = JDT 2458600.5
T 2019 Apr. 20.92381 TT                                 MPCW
q   4.4444773            (2000.0)            P               Q
n   0.08992316     Peri.  297.36171     -0.22491230     -0.97183435
a   4.9342559      Node   165.12302     +0.96245848     -0.23284341
e   0.0992609      Incl.   15.90840     +0.15194782     +0.03635863
P  10.96
From 58 observations 2016 Oct. 30-2017 Nov. 22, mean residual 0".5.

・ 光度変化

        m1 = 10.5 + 5 logΔ + 10.0 log r

---------------------------------------------------------------------

軌道要素はM.P.E.C. 2018-D91に掲載されたものです。
光度グラフはComet for Windowsで作成したものです。

---------------------------------------------------------------------

Copyright(C) Seiichi Yoshida (comet@aerith.net). All rights reserved.